Regional Weather Roundup
Issued by NWS Sterling, VA

Home | Current Version | Previous Version | Graphics & Text | Print | Product List | Glossary On
Versions: 1 2 3 4 5 6 7 8 9 10 11 12 13 14 15 16 17 18 19 20 21 22 23 24 25 26 27 28 29 30 31 32 33 34 35 36 37 38 39 40 41 42 43 44 45 46 47 48 49 50
000
ASUS41 KLWX 241811
RWRLWX

REGIONAL WEATHER ROUNDUP
NATIONAL WEATHER SERVICE BALTIMORE MD/WASHINGTON DC
100 PM EST FRI NOV 24 2017

Note: "FAIR" indicates few or no clouds below 12,000 feet
with no significant weather and/or obstructions to visibility.
 TC=TEMPERATURE CELSIUS

 * =Non NWS site. Station does not report precipitation (e.g. rain,
    snow, etc.), thunder, or fog.

DCZ001-MDZ009-015-VAZ040>042-051-053>054-241900-
WASHINGTON METRO

CITY           SKY/WX    TMP DP  RH WIND       PRES   REMARKS
WASHINGTON NAT MOSUNNY   50  32  50 S9        30.03F
DULLES         SUNNY     51  29  42 S9        30.01F
ANDREWS AFB    SUNNY     53  25  34 CALM      30.00F
FT BELVOIR     SUNNY     51  28  40 S5        30.02F
QUANTICO       SUNNY     50  35  56 S8        30.03F
COLLEGE PARK*  SUNNY     51  24  35 SW7       30.02F
LEESBURG*      SUNNY     54  32  43 S10       30.01F
MANASSAS*      SUNNY     53  29  39 S6        30.01F
GAITHERSBURG*  SUNNY     53  26  35 VRB6      30.00F

$$

MDZ006>007-011-014-241900-
BALTIMORE METRO

CITY           SKY/WX    TMP DP  RH WIND       PRES   REMARKS
BWI AIRPORT    SUNNY     52  27  38 SE6       30.01F
MD SCIENCE CTR   N/A     51  31  46 MISG      30.02F
MARTIN STATE   SUNNY     48  36  61 SE7       30.04F
ANNAPOLIS      SUNNY     48  38  68 SE9       30.02F
FORT MEADE*    SUNNY     52  28  40 SW3       30.03F

$$

MDZ012-015-019>023-241900-
MARYLAND EASTERN SHORE

CITY           SKY/WX    TMP DP  RH WIND       PRES   REMARKS
OCEAN CITY     SUNNY     48  32  53 SE6       30.04F
SALISBURY      SUNNY     51  28  41 CALM      30.03F
CAMBRIDGE*     SUNNY     50  27  40 SW5       30.03F
EASTON*        SUNNY     52  39  62 W7        30.06F

$$

MDZ017>025-241900-
SOUTHERN MARYLAND

CITY           SKY/WX    TMP DP  RH WIND       PRES   REMARKS
PATUXENT RIVER SUNNY     49  35  58 SE12      30.03F
ST INIGOES     SUNNY     48  28  46 S6        30.04F
LEONARDTOWN*   SUNNY     50  30  46 SW5       30.04F

$$

MDZ003>005-241900-
NORTH CENTRAL MARYLAND

CITY           SKY/WX    TMP DP  RH WIND       PRES   REMARKS
FREDERICK*     SUNNY     54  23  30 W7        30.03F
HAGERSTOWN APT SUNNY     50  25  37 S10       29.98F
WESTMINSTER*   SUNNY     50  27  40 CALM      29.98F

$$

MDZ501>502-241900-
WESTERN MARYLAND

CITY           SKY/WX    TMP DP  RH WIND       PRES   REMARKS
OAKLAND*       SUNNY     50  10  20 W5        29.89F
CUMBERLAND*    SUNNY     50  23  34 S5        30.00F

$$

VAZ025>031-241900-
SHENANDOAH VALLEY

CITY           SKY/WX    TMP DP  RH WIND       PRES   REMARKS
WINCHESTER*    SUNNY     52  27  37 S9        29.97F
FRONT ROYAL*   SUNNY     52  25  35 CALM      29.96F
LURAY*         SUNNY     54  25  32 S5        29.96F
NEW MARKET*    SUNNY     53  26  34 SW3       29.96F
STAUNTON*      SUNNY     54  20  27 S8        29.98F
WAYNESBORO*    SUNNY     54  23  30 CALM      29.97F

$$

WVZ021-048>050-054>055-241900-
EASTERN WEST VIRGINIA PANHANDLE

CITY           SKY/WX    TMP DP  RH WIND       PRES   REMARKS
MARTINSBURG    SUNNY     52  26  36 SE6       29.97F
PETERSBURG*    SUNNY     54  22  29 CALM      29.93F

$$

VAZ036>039-050-241900-
CENTRAL FOOTHILLS

CITY           SKY/WX    TMP DP  RH WIND       PRES   REMARKS
CHARLOTTESVILL SUNNY     52  27  38 S8        30.00F
CULPEPER*      SUNNY     55  26  33 S7        30.01F
ORANGE*        SUNNY     52  30  43 SW8       30.01F
GORDONSVILLE*  SUNNY     52  29  41 S7        30.00F
WARRENTON*     NOT AVBL

$$

VAZ055>057-241900-
NORTH AND CENTRAL PIEDMONT

CITY           SKY/WX    TMP DP  RH WIND       PRES   REMARKS
FREDERICKSBRG* SUNNY     53  31  42 SE6       30.01F
STAFFORD*      SUNNY     52  28  40 S5        30.05F

$$

NCZ024-NYZ072-PAZ021-071-VAZ022-071-241900-
OTHER REGIONAL OBSERVATIONS

CITY           SKY/WX    TMP DP  RH WIND       PRES   REMARKS
NEW YORK CITY  SUNNY     48  20  32 SW5       30.03F
PHILADELPHIA   SUNNY     50  26  39 VRB7      30.02F
PITTSBURGH     SUNNY     50  19  29 SW10      29.91F
ROANOKE        SUNNY     55  22  27 CALM      29.99F
RICHMOND       MOSUNNY   53  28  38 CALM      30.02F
RALEIGH        MOSUNNY   54  26  34 E5        30.00F

$$

ANZ530>537-241900-
MARINE OBSERVATIONS

STATION/POSITION TIME  TEMP    WIND        PRES
                       AIR SEA DIR/SP/G
                 (UTC) (F)     (DEG/KT/KT) (MB)
THOMAS PT LIGHT  1800   46 51  160/  7/  8   N/A
BALT KEY BRIDGE  1736   46     110/  7/  9 1016.6F
COVE POINT       1736   46     170/  9/ 10 1017.7F
LEWISETTA        1736   45 49   90/  4/  5 1017.2F
SOLOMONS ISLAND  1736   47 53   90/  6/  7 1016.7F
PINEY POINT      1742          150/  5/  6   N/A

$$




USA.gov is the U.S. government's official web portal to all federal, state and local government web resources and services.